THY68H LTFM-LROP

Flight info

Callsign THY68H
Flight time 0h 57m
Altitude 36000
Route IBLAX1D/35L IBLAX P727 BGS L622 GONGO DCT KOMAN DCT OBUGA
Aircraft A320/M-SDE3FGHIRWY/LB1

Departure

Time 2026-05-04 20:55
Airport İstanbul Airport (LTFM)

Arrival

Time 2026-05-04 21:53
Airport Bucharest Henri Coandă International Airport (LROP)
Time Latitude Longitude Altitude Speed Heading
2026-05-04 20:10 41.26724 28.74141 334 ft 0 kts 89°
2026-05-04 20:38 41.26724 28.74124 334 ft 2 kts 89°
2026-05-04 20:39 41.26724 28.74111 334 ft 0 kts 90°
2026-05-04 20:39 41.26723 28.74093 334 ft 2 kts 76°
2026-05-04 20:39 41.26719 28.74075 334 ft 2 kts 66°
2026-05-04 20:39 41.26712 28.74057 334 ft 2 kts 53°
2026-05-04 20:40 41.26702 28.74043 334 ft 2 kts 41°
2026-05-04 20:40 41.26690 28.74032 334 ft 2 kts 29°
2026-05-04 20:40 41.26677 28.74023 334 ft 2 kts 17°
2026-05-04 20:40 41.26662 28.74019 334 ft 2 kts
2026-05-04 20:41 41.26654 28.74019 334 ft 1 kts 357°
2026-05-04 20:41 41.26651 28.74019 334 ft 0 kts 358°
2026-05-04 20:45 41.26654 28.74019 334 ft 0 kts 358°
2026-05-04 20:46 41.26659 28.74019 334 ft 1 kts 359°
2026-05-04 20:46 41.26694 28.74018 334 ft 8 kts 359°
2026-05-04 20:46 41.26772 28.74015 334 ft 13 kts 358°
2026-05-04 20:46 41.26868 28.74013 334 ft 14 kts 359°
2026-05-04 20:47 41.26915 28.74012 334 ft 6 kts 359°
2026-05-04 20:47 41.26960 28.74010 334 ft 7 kts 359°
2026-05-04 20:47 41.27013 28.74007 334 ft 8 kts 343°
2026-05-04 20:47 41.27041 28.73942 334 ft 9 kts 269°
2026-05-04 20:48 41.27040 28.73850 334 ft 10 kts 269°
2026-05-04 20:48 41.27039 28.73747 334 ft 11 kts 269°
2026-05-04 20:48 41.27038 28.73639 334 ft 12 kts 268°
2026-05-04 20:48 41.27037 28.73523 334 ft 12 kts 269°
2026-05-04 20:49 41.27036 28.73415 334 ft 11 kts 269°
2026-05-04 20:49 41.27034 28.73310 334 ft 12 kts 269°
2026-05-04 20:49 41.27034 28.73195 334 ft 12 kts 270°
2026-05-04 20:49 41.27032 28.73073 334 ft 13 kts 269°
2026-05-04 20:50 41.26998 28.72990 334 ft 11 kts 200°
2026-05-04 20:50 41.26917 28.72988 334 ft 12 kts 179°
2026-05-04 20:50 41.26829 28.72990 334 ft 13 kts 179°
2026-05-04 20:50 41.26774 28.72991 334 ft 0 kts 179°
2026-05-04 20:51 41.26766 28.72991 334 ft 1 kts 179°
2026-05-04 20:51 41.26747 28.72992 334 ft 3 kts 179°
2026-05-04 20:51 41.26716 28.72992 334 ft 5 kts 179°
2026-05-04 20:52 41.26675 28.72993 334 ft 6 kts 179°
2026-05-04 20:52 41.26625 28.72994 334 ft 6 kts 179°
2026-05-04 20:52 41.26587 28.72965 334 ft 7 kts 250°
2026-05-04 20:52 41.26585 28.72894 334 ft 8 kts 268°
2026-05-04 20:53 41.26583 28.72812 334 ft 9 kts 269°
2026-05-04 20:53 41.26584 28.72719 334 ft 10 kts 270°
2026-05-04 20:53 41.26582 28.72619 334 ft 7 kts 269°
2026-05-04 20:53 41.26583 28.72546 334 ft 7 kts 279°
2026-05-04 20:54 41.26625 28.72516 334 ft 8 kts 358°
2026-05-04 20:54 41.26644 28.72515 334 ft 8 kts 359°
2026-05-04 20:54 41.26933 28.72507 334 ft 79 kts 358°
2026-05-04 20:54 41.27697 28.72496 335 ft 140 kts 360°
2026-05-04 20:55 41.28814 28.72472 632 ft 165 kts 358°
2026-05-04 20:55 41.29955 28.72465 1345 ft 165 kts 358°
2026-05-04 20:55 41.31064 28.72470 2223 ft 162 kts 359°
2026-05-04 20:55 41.32190 28.72475 2944 ft 166 kts
2026-05-04 20:56 41.33391 28.72501 3467 ft 184 kts
2026-05-04 20:56 41.34734 28.72533 4001 ft 203 kts
2026-05-04 20:56 41.36213 28.72565 4589 ft 221 kts
2026-05-04 20:56 41.37791 28.72465 5297 ft 235 kts 352°
2026-05-04 20:57 41.39343 28.71846 6226 ft 241 kts 341°
2026-05-04 20:57 41.40877 28.70902 7191 ft 244 kts 340°
2026-05-04 20:57 41.42396 28.69935 8041 ft 249 kts 340°
2026-05-04 20:57 41.43971 28.68927 8881 ft 254 kts 340°
2026-05-04 20:58 41.45562 28.67909 9713 ft 259 kts 340°
2026-05-04 20:58 41.47198 28.66861 10477 ft 265 kts 340°
2026-05-04 20:58 41.48916 28.65770 10956 ft 282 kts 340°
2026-05-04 20:58 41.50725 28.64619 11364 ft 299 kts 339°
2026-05-04 20:59 41.52622 28.63403 12001 ft 308 kts 339°
2026-05-04 20:59 41.54577 28.62147 12787 ft 312 kts 339°
2026-05-04 20:59 41.56510 28.60778 13538 ft 319 kts 332°
2026-05-04 20:59 41.58290 28.59003 14216 ft 328 kts 323°
2026-05-04 21:00 41.59914 28.56822 14937 ft 335 kts 318°
2026-05-04 21:00 41.61489 28.54506 15644 ft 339 kts 318°
2026-05-04 21:00 41.63084 28.52136 16320 ft 343 kts 318°
2026-05-04 21:00 41.64684 28.49771 16980 ft 347 kts 319°
2026-05-04 21:01 41.66370 28.47505 17616 ft 345 kts 326°
2026-05-04 21:01 41.68336 28.45639 18250 ft 342 kts 336°
2026-05-04 21:01 41.70454 28.44256 18911 ft 340 kts 342°
2026-05-04 21:01 41.72645 28.43024 19540 ft 343 kts 343°
2026-05-04 21:02 41.74860 28.41802 20139 ft 346 kts 343°
2026-05-04 21:02 41.77067 28.40577 20733 ft 349 kts 342°
2026-05-04 21:02 41.79345 28.39309 21326 ft 352 kts 342°
2026-05-04 21:02 41.81598 28.38049 21899 ft 355 kts 342°
2026-05-04 21:03 41.83881 28.36767 22452 ft 358 kts 342°
2026-05-04 21:03 41.86202 28.35463 22998 ft 361 kts 341°
2026-05-04 21:03 41.88502 28.34164 23501 ft 365 kts 341°
2026-05-04 21:03 41.90864 28.32819 24006 ft 368 kts 340°
2026-05-04 21:04 41.93234 28.31474 24511 ft 371 kts 341°
2026-05-04 21:04 41.95607 28.30089 25021 ft 375 kts 337°
2026-05-04 21:04 41.97825 28.28176 25494 ft 384 kts 325°
2026-05-04 21:04 41.99756 28.25629 25975 ft 393 kts 314°
2026-05-04 21:05 42.01358 28.22666 26471 ft 398 kts 309°
2026-05-04 21:05 42.02918 28.19569 26936 ft 401 kts 309°
2026-05-04 21:05 42.04487 28.16423 27396 ft 403 kts 309°
2026-05-04 21:05 42.06048 28.13296 27839 ft 405 kts 309°
2026-05-04 21:06 42.07618 28.10159 28267 ft 406 kts 309°
2026-05-04 21:06 42.09198 28.07012 28674 ft 409 kts 309°
2026-05-04 21:06 42.10811 28.03801 29094 ft 410 kts 309°
2026-05-04 21:06 42.12407 28.00648 29499 ft 412 kts 309°
2026-05-04 21:07 42.14011 27.97469 29925 ft 413 kts 309°
2026-05-04 21:07 42.15621 27.94261 30477 ft 411 kts 309°
2026-05-04 21:07 42.17218 27.91067 31022 ft 409 kts 309°
2026-05-04 21:07 42.18850 27.87979 31474 ft 407 kts 313°
2026-05-04 21:08 42.20665 27.85035 31866 ft 405 kts 317°
2026-05-04 21:08 42.22628 27.82310 32258 ft 403 kts 321°
2026-05-04 21:08 42.24727 27.79807 32645 ft 401 kts 325°
2026-05-04 21:08 42.26928 27.77558 33026 ft 398 kts 329°
2026-05-04 21:09 42.29268 27.75523 33381 ft 397 kts 333°
2026-05-04 21:09 42.31670 27.73706 33707 ft 397 kts 335°
2026-05-04 21:09 42.34119 27.71912 34007 ft 398 kts 335°
2026-05-04 21:09 42.36563 27.70129 34303 ft 399 kts 335°
2026-05-04 21:10 42.38981 27.68364 34589 ft 400 kts 335°
2026-05-04 21:10 42.41430 27.66573 34857 ft 401 kts 335°
2026-05-04 21:10 42.43892 27.64768 35048 ft 402 kts 335°
2026-05-04 21:10 42.46363 27.62957 35224 ft 404 kts 335°
2026-05-04 21:11 42.48853 27.61127 35411 ft 405 kts 335°
2026-05-04 21:11 42.51314 27.59315 35601 ft 406 kts 335°
2026-05-04 21:11 42.53810 27.57476 35788 ft 407 kts 335°
2026-05-04 21:11 42.56306 27.55633 35974 ft 408 kts 334°
2026-05-04 21:12 42.61123 27.51518 36068 ft 412 kts 328°
2026-05-04 21:12 42.65791 27.46958 36070 ft 413 kts 327°
2026-05-04 21:13 42.70439 27.42377 36072 ft 413 kts 327°
2026-05-04 21:13 42.75098 27.37786 36074 ft 413 kts 327°
2026-05-04 21:14 42.79765 27.33174 36073 ft 413 kts 326°
2026-05-04 21:14 42.84405 27.28559 36077 ft 413 kts 326°
2026-05-04 21:15 42.89038 27.23959 36080 ft 413 kts 326°
2026-05-04 21:15 42.93720 27.19308 36082 ft 413 kts 326°
2026-05-04 21:16 42.98346 27.14711 36086 ft 414 kts 326°
2026-05-04 21:16 43.03012 27.10064 36087 ft 415 kts 326°
2026-05-04 21:17 43.07680 27.05405 36086 ft 415 kts 326°
2026-05-04 21:17 43.12419 27.00902 36090 ft 413 kts 328°
2026-05-04 21:18 43.17227 26.96571 36088 ft 413 kts 328°
2026-05-04 21:18 43.22047 26.92210 36088 ft 413 kts 328°
2026-05-04 21:19 43.24448 26.90029 35903 ft 415 kts 328°
2026-05-04 21:19 43.26823 26.87867 35464 ft 414 kts 328°
2026-05-04 21:19 43.29242 26.85664 34871 ft 416 kts 328°
2026-05-04 21:19 43.31648 26.83470 34142 ft 418 kts 328°
2026-05-04 21:20 43.34066 26.81264 33535 ft 416 kts 328°
2026-05-04 21:20 43.36466 26.79071 32961 ft 413 kts 327°
2026-05-04 21:20 43.38830 26.76908 32409 ft 410 kts 327°
2026-05-04 21:20 43.41206 26.74731 31853 ft 407 kts 327°
2026-05-04 21:21 43.43539 26.72591 31290 ft 405 kts 327°
2026-05-04 21:21 43.45892 26.70430 30671 ft 405 kts 327°
2026-05-04 21:21 43.48198 26.68310 30041 ft 399 kts 327°
2026-05-04 21:21 43.50479 26.66208 29311 ft 387 kts 327°
2026-05-04 21:22 43.52645 26.64210 28912 ft 367 kts 327°
2026-05-04 21:22 43.54736 26.62281 28632 ft 354 kts 327°
2026-05-04 21:22 43.56779 26.60396 28255 ft 353 kts 327°
2026-05-04 21:22 43.58823 26.58511 27869 ft 353 kts 327°
2026-05-04 21:23 43.60859 26.56630 27467 ft 354 kts 327°
2026-05-04 21:23 43.62897 26.54746 27074 ft 355 kts 327°
2026-05-04 21:23 43.64955 26.52842 26666 ft 356 kts 327°
2026-05-04 21:23 43.67006 26.50943 26290 ft 356 kts 327°
2026-05-04 21:24 43.69063 26.49036 25849 ft 350 kts 327°
2026-05-04 21:24 43.71084 26.47161 25402 ft 346 kts 327°
2026-05-04 21:24 43.73042 26.45341 25006 ft 342 kts 327°
2026-05-04 21:24 43.75029 26.43496 24700 ft 341 kts 327°
2026-05-04 21:25 43.76978 26.41684 24430 ft 342 kts 327°
2026-05-04 21:25 43.78966 26.39834 24182 ft 342 kts 327°
2026-05-04 21:25 43.80926 26.38008 23838 ft 340 kts 328°
2026-05-04 21:25 43.82899 26.36168 23188 ft 345 kts 328°
2026-05-04 21:26 43.84904 26.34296 22701 ft 346 kts 327°
2026-05-04 21:26 43.86876 26.32439 22248 ft 347 kts 327°
2026-05-04 21:26 43.88878 26.30554 21793 ft 347 kts 327°
2026-05-04 21:26 43.90873 26.28682 21334 ft 348 kts 328°
2026-05-04 21:27 43.92887 26.26794 20869 ft 348 kts 328°
2026-05-04 21:27 43.94900 26.24907 20427 ft 347 kts 328°
2026-05-04 21:27 43.96890 26.23041 19995 ft 347 kts 328°
2026-05-04 21:27 43.98871 26.21176 19550 ft 346 kts 328°
2026-05-04 21:28 44.00851 26.19260 19117 ft 345 kts 328°
2026-05-04 21:28 44.02809 26.17346 18658 ft 345 kts 328°
2026-05-04 21:28 44.04779 26.15421 18193 ft 344 kts 329°
2026-05-04 21:28 44.06733 26.13515 17777 ft 342 kts 329°
2026-05-04 21:29 44.08662 26.11624 17359 ft 342 kts 327°
2026-05-04 21:29 44.10379 26.09327 16912 ft 347 kts 312°
2026-05-04 21:29 44.11625 26.06423 16494 ft 353 kts 297°
2026-05-04 21:29 44.12451 26.03187 16086 ft 354 kts 292°
2026-05-04 21:30 44.13191 25.99910 15670 ft 353 kts 292°
2026-05-04 21:30 44.13909 25.96673 15277 ft 351 kts 292°
2026-05-04 21:30 44.14629 25.93461 14881 ft 349 kts 292°
2026-05-04 21:30 44.15358 25.90228 14494 ft 347 kts 292°
2026-05-04 21:31 44.16804 25.83866 13715 ft 343 kts 292°
2026-05-04 21:31 44.17525 25.80701 13329 ft 342 kts 292°
2026-05-04 21:31 44.18239 25.77561 12953 ft 339 kts 292°
2026-05-04 21:32 44.18948 25.74443 12574 ft 337 kts 292°
2026-05-04 21:32 44.19649 25.71349 12197 ft 335 kts 292°
2026-05-04 21:32 44.20347 25.68266 11816 ft 333 kts 292°
2026-05-04 21:32 44.21040 25.65199 11436 ft 331 kts 292°
2026-05-04 21:33 44.21730 25.62142 11055 ft 329 kts 292°
2026-05-04 21:33 44.22412 25.59119 10676 ft 327 kts 292°
2026-05-04 21:33 44.23087 25.56121 10303 ft 325 kts 293°
2026-05-04 21:33 44.24007 25.53340 10125 ft 302 kts 315°
2026-05-04 21:34 44.25592 25.51688 10057 ft 274 kts 344°
2026-05-04 21:34 44.27378 25.51207 10000 ft 256 kts 359°
2026-05-04 21:34 44.29195 25.51001 10011 ft 263 kts 359°
2026-05-04 21:34 44.30989 25.50773 9892 ft 257 kts 358°
2026-05-04 21:35 44.32740 25.50523 9425 ft 251 kts 358°
2026-05-04 21:35 44.34467 25.50264 8870 ft 246 kts 357°
2026-05-04 21:35 44.36157 25.50004 8603 ft 242 kts 357°
2026-05-04 21:35 44.37826 25.49744 8316 ft 240 kts 357°
2026-05-04 21:36 44.39486 25.49483 8028 ft 239 kts 357°
2026-05-04 21:36 44.41138 25.49223 7743 ft 238 kts 357°
2026-05-04 21:36 44.42788 25.48628 7458 ft 253 kts 335°
2026-05-04 21:36 44.44097 25.46975 7165 ft 261 kts 307°
2026-05-04 21:37 44.44715 25.44539 6772 ft 271 kts 278°
2026-05-04 21:37 44.44447 25.41954 6394 ft 277 kts 251°
2026-05-04 21:37 44.43661 25.39505 6091 ft 275 kts 243°
2026-05-04 21:37 44.42381 25.37513 6024 ft 278 kts 213°
2026-05-04 21:38 44.40579 25.36592 6013 ft 275 kts 183°
2026-05-04 21:38 44.38728 25.36950 6012 ft 269 kts 153°
2026-05-04 21:38 44.37262 25.38462 6012 ft 261 kts 123°
2026-05-04 21:38 44.36540 25.40717 6011 ft 249 kts 94°
2026-05-04 21:39 44.36682 25.42998 6016 ft 227 kts 71°
2026-05-04 21:39 44.37162 25.44994 6010 ft 212 kts 62°
2026-05-04 21:39 44.37965 25.46690 6017 ft 210 kts 50°
2026-05-04 21:39 44.38931 25.48253 6017 ft 209 kts 46°
2026-05-04 21:40 44.40051 25.49416 5989 ft 198 kts 14°
2026-05-04 21:40 44.41422 25.49361 6042 ft 202 kts 352°
2026-05-04 21:40 44.42820 25.49023 6030 ft 203 kts 355°
2026-05-04 21:40 44.44224 25.48759 6023 ft 203 kts 356°
2026-05-04 21:41 44.45634 25.48521 6022 ft 203 kts 356°
2026-05-04 21:41 44.47044 25.48292 6018 ft 203 kts 357°
2026-05-04 21:41 44.48440 25.48069 6017 ft 204 kts 356°
2026-05-04 21:41 44.49847 25.48052 5992 ft 195 kts 17°
2026-05-04 21:42 44.50991 25.48843 5987 ft 178 kts 41°
2026-05-04 21:42 44.51766 25.50198 6006 ft 179 kts 63°
2026-05-04 21:42 44.52103 25.51884 6023 ft 183 kts 78°
2026-05-04 21:42 44.52253 25.53665 6024 ft 184 kts 80°
2026-05-04 21:43 44.52390 25.55434 6028 ft 184 kts 79°
2026-05-04 21:43 44.52528 25.57225 6023 ft 184 kts 79°
2026-05-04 21:43 44.52668 25.59003 6110 ft 183 kts 79°
2026-05-04 21:43 44.52809 25.60784 6104 ft 180 kts 79°
2026-05-04 21:44 44.52942 25.62475 5689 ft 175 kts 79°
2026-05-04 21:44 44.53080 25.64157 5025 ft 178 kts 78°
2026-05-04 21:44 44.53266 25.65877 4405 ft 179 kts 77°
2026-05-04 21:44 44.53455 25.67603 4063 ft 179 kts 78°
2026-05-04 21:45 44.53628 25.69323 3778 ft 180 kts 79°
2026-05-04 21:45 44.53780 25.71011 3474 ft 168 kts 80°
2026-05-04 21:45 44.53909 25.72584 3170 ft 157 kts 81°
2026-05-04 21:45 44.53981 25.74021 3048 ft 140 kts 82°
2026-05-04 21:46 44.54069 25.75379 3030 ft 138 kts 81°
2026-05-04 21:46 44.54174 25.76728 3022 ft 138 kts 81°
2026-05-04 21:46 44.54277 25.78056 3016 ft 138 kts 81°
2026-05-04 21:46 44.54380 25.79400 3012 ft 138 kts 81°
2026-05-04 21:47 44.54480 25.80749 3013 ft 138 kts 81°
2026-05-04 21:47 44.54578 25.82082 3012 ft 138 kts 81°
2026-05-04 21:47 44.54676 25.83421 3013 ft 137 kts 81°
2026-05-04 21:47 44.54772 25.84751 3011 ft 137 kts 81°
2026-05-04 21:48 44.54869 25.86093 2999 ft 138 kts 81°
2026-05-04 21:48 44.54966 25.87423 2840 ft 137 kts 81°
2026-05-04 21:48 44.55059 25.88764 2677 ft 137 kts 82°
2026-05-04 21:48 44.55139 25.90101 2522 ft 137 kts 83°
2026-05-04 21:49 44.55213 25.91436 2371 ft 136 kts 82°
2026-05-04 21:49 44.55319 25.92754 2218 ft 136 kts 80°
2026-05-04 21:49 44.55440 25.94054 2070 ft 136 kts 81°
2026-05-04 21:49 44.55541 25.95367 1896 ft 138 kts 82°
2026-05-04 21:50 44.55633 25.96716 1692 ft 137 kts 83°
2026-05-04 21:50 44.55745 25.98039 1511 ft 136 kts 81°
2026-05-04 21:50 44.55855 25.99346 1421 ft 135 kts 82°
2026-05-04 21:50 44.55956 26.00672 1235 ft 138 kts 84°
2026-05-04 21:51 44.56033 26.01996 1045 ft 134 kts 84°
2026-05-04 21:51 44.56136 26.03299 886 ft 133 kts 82°
2026-05-04 21:51 44.56240 26.04585 722 ft 132 kts 83°
2026-05-04 21:51 44.56332 26.05854 583 ft 132 kts 83°
2026-05-04 21:52 44.56427 26.07151 421 ft 131 kts 82°
2026-05-04 21:52 44.56521 26.08389 307 ft 119 kts 83°
2026-05-04 21:52 44.56591 26.09299 307 ft 69 kts 84°
2026-05-04 21:52 44.56632 26.09852 307 ft 52 kts 84°
2026-05-04 21:53 44.56669 26.10336 304 ft 47 kts 84°
2026-05-04 21:53 44.56694 26.10664 304 ft 17 kts 81°
2026-05-04 21:53 44.56746 26.10763 304 ft 13 kts
2026-05-04 21:53 44.56807 26.10756 304 ft 0 kts 354°
2026-05-04 21:55 44.56809 26.10756 304 ft 1 kts 354°
2026-05-04 21:56 44.56845 26.10751 304 ft 8 kts 354°
2026-05-04 21:56 44.56918 26.10740 306 ft 12 kts 353°
2026-05-04 21:56 44.57003 26.10702 307 ft 13 kts 322°
2026-05-04 21:56 44.57054 26.10599 307 ft 13 kts 296°
2026-05-04 21:57 44.57068 26.10466 307 ft 15 kts 263°
2026-05-04 21:57 44.57056 26.10299 308 ft 17 kts 264°
2026-05-04 21:57 44.57043 26.10135 308 ft 17 kts 262°
2026-05-04 21:57 44.57029 26.09964 308 ft 17 kts 263°
2026-05-04 21:58 44.57016 26.09801 311 ft 16 kts 264°
2026-05-04 21:58 44.57005 26.09642 311 ft 16 kts 264°
2026-05-04 21:58 44.56992 26.09477 311 ft 17 kts 264°
2026-05-04 21:58 44.56979 26.09311 310 ft 17 kts 264°
2026-05-04 21:59 44.56965 26.09127 307 ft 19 kts 263°
2026-05-04 21:59 44.56950 26.08939 307 ft 19 kts 264°
2026-05-04 21:59 44.56937 26.08756 306 ft 11 kts 264°
2026-05-04 21:59 44.56929 26.08651 308 ft 10 kts 262°
2026-05-04 22:00 44.56913 26.08556 309 ft 10 kts 248°
2026-05-04 22:00 44.56897 26.08451 310 ft 9 kts 262°
2026-05-04 22:00 44.56895 26.08436 310 ft 0 kts 261°
2026-05-04 22:00 44.56895 26.08430 310 ft 4 kts 270°
2026-05-04 22:01 44.56924 26.08395 311 ft 6 kts 337°
2026-05-04 22:01 44.56950 26.08345 313 ft 7 kts 277°
2026-05-04 22:01 44.56947 26.08266 314 ft 8 kts 264°
2026-05-04 22:01 44.56958 26.08207 316 ft 6 kts 340°
2026-05-04 22:02 44.57006 26.08198 317 ft 5 kts 356°
2026-05-04 22:02 44.57026 26.08196 317 ft 0 kts 354°